Regional Weather Roundup
Issued by NWS

Home | Current Version | Previous Version | Graphics & Text | Print | Product List | Glossary On
Versions: 1 2 3 4 5 6 7 8 9 10 11 12 13 14 15 16 17 18 19 20 21 22 23 24 25 26 27 28 29 30 31 32 33 34 35 36 37 38 39 40 41 42 43 44 45 46 47 48 49 50
000
ASUS43 KBIS 191610
RWRND

NORTH DAKOTA REGIONAL WEATHER ROUNDUP
NATIONAL WEATHER SERVICE BISMARCK ND
1000 AM CST THU JAN 19 2017

NOTE: "FAIR" INDICATES FEW OR NO CLOUDS BELOW 12,000 FEET WITH NO
SIGNIFICANT WEATHER AND/OR OBSTRUCTIONS TO VISIBILITY.


NDZ001>003-009>011-017-191700-
NORTHWEST NORTH DAKOTA

CITY           SKY/WX    TMP DP  RH WIND       PRES   REMARKS
WILLISTON      FAIR      18  17  96 CALM      29.50S
MINOT          FAIR      30  23  75 SW14      29.47S WCI  19
MINOT AFB      CLOUDY    26  21  81 SW8       29.47S WCI  18
$$

NDZ018>021-031>035-040>046-191700-
SOUTHWEST NORTH DAKOTA

CITY           SKY/WX    TMP DP  RH WIND       PRES   REMARKS
BISMARCK       FAIR      15  10  80 NE5       29.53S WCI   8
DICKINSON      FAIR      22  16  78 W8        29.47S WCI  12
GARRISON         N/A     19  14  81 CALM      29.50R
HETTINGER ARPT CLOUDY    17  12  80 W3        29.51R
$$

NDZ004>008-012>016-024-026-027-054-191700-
NORTHEAST NORTH DAKOTA

CITY           SKY/WX    TMP DP  RH WIND       PRES   REMARKS
GRAND FORKS    FOG       23  19  85 S16       29.58F VSB 3/4 WCI  10
GRND FRKS AFB  FOG       25  23  93 S13       29.57F VSB 1   WCI  13
DEVILS LAKE    FAIR      21  16  81 SE8       29.52S WCI  11
$$

NDZ022-023-025-028>030-036>039-047>053-191700-
SOUTHEAST NORTH DAKOTA

CITY           SKY/WX    TMP DP  RH WIND       PRES   REMARKS
FARGO          PTSUNNY   30  30 100 SE12G26   29.63R FOG
JAMESTOWN      FAIR      18  16  92 S7        29.55R WCI   9
$$





USA.gov is the U.S. government's official web portal to all federal, state and local government web resources and services.